AXX256 KBFL-KLAS

Flight info

Callsign AXX256
Flight time N/A
Altitude 0
Route KTSP KMHV KEDW KNID NV65 KINS
Aircraft BE36/L-VGD/C

Departure

Time 2026-04-26 11:42
Airport Meadows Field (KBFL)

Arrival

Time N/A
Airport Harry Reid International Airport (KLAS)
Time Latitude Longitude Altitude Speed Heading
2026-04-26 11:31 35.42966 -119.04662 488 ft 0 kts 136°
2026-04-26 11:38 35.42963 -119.04658 488 ft 5 kts 146°
2026-04-26 11:39 35.42886 -119.04681 485 ft 11 kts 210°
2026-04-26 11:39 35.42785 -119.04672 483 ft 20 kts 132°
2026-04-26 11:39 35.42670 -119.04529 480 ft 24 kts 131°
2026-04-26 11:39 35.42565 -119.04521 477 ft 18 kts 228°
2026-04-26 11:40 35.42590 -119.04663 477 ft 21 kts 311°
2026-04-26 11:40 35.42772 -119.04884 480 ft 57 kts 317°
2026-04-26 11:40 35.42865 -119.04989 481 ft 0 kts 320°
2026-04-26 11:41 35.42874 -119.05000 481 ft 16 kts 314°
2026-04-26 11:42 35.44073 -119.03275 1653 ft 104 kts 122°
2026-04-26 11:43 35.43631 -119.02487 1746 ft 117 kts 122°
2026-04-26 11:43 35.43161 -119.01640 1831 ft 124 kts 122°
2026-04-26 11:43 35.42665 -119.00739 1911 ft 129 kts 122°
2026-04-26 11:43 35.42156 -118.99813 1989 ft 131 kts 122°
2026-04-26 11:44 35.41646 -118.98883 2065 ft 133 kts 122°
2026-04-26 11:44 35.41131 -118.97941 2142 ft 133 kts 122°
2026-04-26 11:44 35.40611 -118.96986 2221 ft 134 kts 122°
2026-04-26 11:44 35.40096 -118.96035 2297 ft 134 kts 122°
2026-04-26 11:45 35.39584 -118.95087 2371 ft 134 kts 122°
2026-04-26 11:45 35.39074 -118.94133 2446 ft 134 kts 122°
2026-04-26 11:45 35.38565 -118.93165 2523 ft 134 kts 122°
2026-04-26 11:45 35.38058 -118.92188 2602 ft 137 kts 122°
2026-04-26 11:46 35.37536 -118.91164 2681 ft 138 kts 122°
2026-04-26 11:46 35.35285 -118.86704 3022 ft 139 kts 122°
2026-04-26 11:46 35.29834 -118.75831 3827 ft 139 kts 122°